Theta_e
325 323 323 324 325 327 330 332 332 333 336 336 335 332 332 335 337 345 351 349 351 349 350 354 353 354 353 349 350 350 352 353 353 352 348 346 346 346 347 346 347 347 346 346 345 346 349 350 351 351 350 351 350 349 350 350 350 349 350 350 349 352 351 343 343 347 347 350 350 348 349 349 348 347 347 347 346 348 349 340 334 336 336 336 337 340
325 323 323 326 327 328 329 333 333 333 336 335 333 329 328 334 338 342 349 349 350 348 347 351 351 352 353 350 350 351 351 353 353 352 348 345 346 346 346 346 346 347 346 346 346 346 348 350 350 350 351 350 351 351 350 351 352 351 351 350 350 352 350 346 346 349 349 350 349 348 348 349 348 347 347 347 345 348 348 337 335 336 334 336 337 339
323 322 324 326 328 327 328 330 332 331 331 330 330 327 324 331 338 337 343 347 345 344 346 349 349 350 352 350 351 351 351 352 352 352 349 346 346 346 346 346 346 346 346 347 346 346 347 349 350 351 352 351 352 352 350 352 352 351 352 349 349 351 350 349 349 350 349 349 349 348 348 348 348 347 347 347 346 349 346 336 338 339 335 336 338 340
320 322 325 327 326 327 327 328 330 329 326 326 327 323 322 329 331 330 337 343 343 344 347 348 348 349 354 354 353 352 352 353 352 350 350 348 346 345 345 345 346 346 346 347 346 347 347 348 351 351 352 352 353 352 351 353 352 352 352 348 347 349 349 350 350 350 350 349 349 349 348 348 347 347 348 348 347 349 347 341 341 341 335 337 340 340
321 324 326 325 325 325 325 326 327 325 322 324 326 323 323 328 328 332 338 341 342 342 345 350 348 349 353 354 355 354 353 353 354 351 351 350 347 346 346 345 346 345 346 346 345 346 347 348 350 352 352 352 353 352 351 353 352 353 354 349 347 347 348 350 348 350 351 349 351 351 349 349 348 349 348 349 349 348 348 345 343 340 335 341 346 345
323 325 325 324 323 323 322 324 324 323 321 321 325 326 325 326 328 333 337 335 332 334 342 348 343 344 350 351 354 357 356 354 354 353 352 351 349 348 347 346 346 345 345 346 345 345 346 348 351 352 352 352 353 352 351 353 352 353 354 350 347 347 348 349 347 350 351 348 349 350 350 350 349 350 350 349 349 347 347 346 345 342 338 344 350 348
324 325 324 323 322 322 322 322 323 324 321 318 323 327 327 328 327 327 330 327 323 329 345 344 337 340 348 350 352 356 357 356 353 352 351 353 352 352 349 347 347 346 345 346 345 345 345 348 350 352 352 352 353 352 352 352 351 354 355 350 346 345 349 349 345 349 349 345 346 347 350 351 349 351 351 349 348 346 344 345 346 346 343 345 349 349
324 325 324 323 322 322 322 321 323 324 320 318 324 326 327 328 327 327 327 324 322 328 338 338 332 336 342 348 352 353 353 353 352 350 350 352 352 352 350 348 348 347 346 345 346 345 345 348 349 351 352 352 353 351 351 352 350 354 354 350 347 345 350 348 340 343 345 341 343 344 348 351 350 352 351 349 348 345 343 345 345 348 348 346 350 352
326 326 325 324 323 323 323 323 324 324 321 321 325 325 326 327 327 327 325 323 326 325 325 330 330 331 337 347 351 353 352 352 351 349 351 352 351 351 351 350 349 348 347 345 345 346 345 347 348 350 351 351 353 351 351 352 350 355 354 349 348 347 350 349 336 335 340 339 340 343 348 351 349 350 350 349 349 346 345 347 346 348 350 347 349 351
326 326 325 324 323 324 325 325 325 323 323 323 324 325 325 327 326 326 325 321 323 324 321 326 329 330 338 346 348 350 351 351 352 350 352 353 350 351 351 350 350 347 347 345 344 345 345 346 346 349 350 350 352 351 352 352 351 355 354 349 349 347 350 351 338 332 337 338 339 342 349 350 347 348 348 348 350 349 347 349 349 349 350 349 348 349
326 325 325 324 324 325 326 326 325 324 323 323 323 325 324 325 326 325 326 323 321 322 322 326 329 328 337 344 347 349 350 350 352 350 351 353 351 351 351 350 351 348 348 346 345 344 345 347 346 347 349 349 351 350 352 353 352 355 354 349 349 346 348 351 342 334 336 336 336 341 348 350 345 346 347 346 349 350 348 350 352 350 349 350 350 349
326 324 324 324 324 325 325 325 325 324 325 323 323 323 322 322 324 323 323 323 321 320 322 327 327 326 334 343 348 349 351 350 351 350 350 352 353 352 352 351 352 352 350 346 347 346 344 346 346 347 348 347 350 350 351 353 352 356 354 351 349 345 347 350 342 336 337 336 334 336 345 350 346 346 348 345 345 347 347 347 351 350 347 349 350 349
325 325 325 325 325 325 324 323 324 324 325 325 323 321 319 319 321 321 321 321 320 320 323 326 325 331 338 345 348 349 349 349 351 352 352 352 353 353 351 351 353 354 351 347 347 347 344 345 345 346 347 346 349 349 350 352 353 356 356 351 347 344 345 346 341 338 337 337 336 334 339 346 346 347 349 345 341 343 343 342 346 347 343 344 348 349
320 325 326 326 325 324 324 322 321 323 325 326 323 320 319 318 320 321 320 320 320 320 324 324 329 338 342 345 346 348 348 349 351 353 353 352 352 353 351 351 353 353 351 348 346 346 345 345 345 345 346 346 348 348 350 352 352 355 357 354 347 343 343 344 341 340 338 336 338 336 336 341 342 344 349 348 346 344 341 340 344 347 344 342 345 347
317 320 324 325 325 324 326 325 324 325 325 326 326 324 321 319 319 320 319 318 319 319 322 325 330 336 339 341 345 348 348 350 350 351 352 351 352 353 353 353 353 353 353 349 346 346 346 345 344 345 346 346 347 348 350 351 351 354 357 356 351 346 343 343 342 342 341 337 338 340 342 343 340 340 346 349 350 349 345 344 346 347 347 346 345 346
317 318 325 327 326 326 326 326 328 326 322 326 327 324 321 321 321 319 317 319 319 318 321 325 331 337 341 343 346 348 348 351 351 351 352 351 351 353 353 353 352 354 355 352 347 347 347 345 344 344 346 346 347 348 349 349 350 352 355 354 352 348 344 343 342 342 342 339 340 343 346 348 345 338 340 345 347 349 348 348 347 346 347 348 346 346
317 319 326 328 326 327 326 326 327 325 321 324 324 321 322 327 325 318 317 320 319 319 319 326 336 342 344 345 345 346 348 350 351 351 351 350 350 351 351 351 350 353 355 352 349 349 349 347 345 345 345 346 347 347 348 349 348 351 354 353 351 348 348 348 343 342 342 340 341 342 343 349 351 344 341 344 345 346 349 349 348 347 346 346 346 346
320 319 325 328 325 326 328 326 326 327 325 323 321 322 325 328 327 321 318 317 318 319 317 323 335 338 338 342 344 344 346 348 349 350 351 351 351 351 350 348 350 354 354 352 350 349 348 346 345 346 346 347 348 347 348 349 349 350 352 353 351 350 351 352 349 346 345 342 342 343 341 346 353 351 347 348 347 346 349 349 348 347 347 346 346 347
323 318 322 327 325 326 328 326 323 325 327 324 323 326 325 321 322 321 319 317 317 319 317 322 334 335 333 339 343 342 344 344 347 349 349 351 352 352 350 350 352 353 352 352 351 349 348 346 346 348 347 347 347 347 348 349 349 350 351 354 355 354 353 353 353 353 352 348 345 348 346 344 351 354 352 350 349 347 348 349 349 349 348 347 346 347
324 319 319 325 325 326 326 323 321 322 324 325 324 327 324 321 321 320 320 320 318 319 318 322 333 337 338 343 346 345 346 346 346 349 349 351 352 352 352 352 351 350 351 353 353 351 349 347 347 347 346 347 346 348 349 348 348 350 351 354 356 356 355 355 355 356 356 353 351 352 351 348 350 354 354 351 350 349 348 348 348 348 348 348 347 347
324 321 317 323 325 323 322 323 323 323 324 325 323 323 322 322 324 323 322 321 319 319 319 319 329 339 343 345 346 345 346 345 346 348 349 351 352 351 353 353 351 351 352 353 353 353 350 348 348 346 346 347 347 349 349 347 347 348 349 350 351 353 355 355 356 356 356 355 354 353 353 352 352 353 355 354 352 351 349 348 348 349 348 348 348 347
323 322 318 320 322 320 322 326 327 327 327 326 324 323 323 323 324 322 322 323 319 320 320 317 328 340 344 344 345 344 345 346 346 348 350 351 351 351 353 352 351 350 351 352 353 352 350 350 349 347 346 346 348 349 348 347 347 347 347 347 348 352 354 354 353 354 354 354 354 353 353 354 354 353 354 354 353 352 352 351 350 349 349 349 348 348
324 323 320 319 320 322 326 327 327 327 327 328 326 325 326 324 323 320 320 323 321 321 322 319 328 340 343 343 344 344 344 345 345 348 349 347 347 349 351 351 350 350 351 352 353 352 351 351 350 349 349 350 352 353 350 348 346 346 347 348 348 350 353 353 351 351 354 355 354 353 353 354 354 355 354 354 353 353 353 353 352 351 350 350 350 348
323 322 318 317 322 325 325 325 326 327 326 326 324 324 325 324 325 324 323 325 322 321 323 320 326 338 342 343 346 344 343 343 342 344 346 345 345 346 348 350 350 349 349 350 352 352 351 350 349 347 348 351 353 353 353 353 352 349 348 349 349 348 348 349 349 350 353 354 354 353 353 354 354 354 354 354 353 352 351 352 352 352 352 352 351 351
321 322 320 317 318 320 321 322 324 325 325 324 323 325 326 326 328 327 326 327 323 322 323 321 326 338 343 344 345 344 344 344 343 344 345 346 344 344 346 349 349 348 347 348 350 350 349 348 347 345 346 349 350 351 353 355 355 355 350 347 348 349 349 348 348 350 351 350 351 352 351 351 353 354 354 354 354 352 351 350 350 351 353 353 353 352
321 323 322 319 317 318 319 320 321 324 325 325 325 326 327 327 327 326 325 325 324 324 325 324 329 339 345 344 343 342 344 345 345 345 345 345 344 343 345 346 348 349 347 347 349 350 350 350 348 346 346 347 347 347 349 350 353 356 354 351 352 354 355 355 354 353 351 349 349 349 348 348 350 351 352 352 352 352 351 350 349 348 350 352 352 352
323 323 323 322 320 320 321 323 326 326 324 323 324 325 326 326 328 327 324 323 325 324 325 330 334 337 340 343 344 343 343 344 345 345 345 345 345 343 344 344 346 347 346 346 348 348 350 350 349 349 348 348 348 347 345 343 346 352 356 356 356 355 354 355 356 356 354 352 350 348 347 347 348 350 350 349 350 350 350 349 349 349 348 348 350 351
321 320 321 323 322 322 324 324 325 325 322 322 322 322 324 326 327 326 323 325 328 323 324 335 338 334 337 344 345 343 343 343 345 345 344 344 344 343 343 343 343 344 344 345 345 345 348 349 348 349 349 349 349 348 347 345 344 347 352 355 357 355 353 353 354 355 355 354 352 351 352 353 352 351 350 349 349 348 349 349 349 349 348 348 347 348
321 319 320 322 321 323 323 323 323 323 322 322 321 320 323 324 324 325 324 327 329 325 328 337 338 337 340 343 342 343 343 343 343 344 344 343 343 342 342 342 341 342 343 344 344 344 345 346 347 347 347 348 348 348 348 348 347 346 346 349 353 353 351 350 351 353 353 353 352 352 353 354 353 351 349 349 348 347 348 349 349 348 348 350 349 348
322 320 323 323 322 323 324 323 323 322 321 321 321 321 323 324 324 325 325 328 330 330 334 338 338 341 344 342 342 343 343 343 343 342 342 342 342 341 341 340 340 340 341 342 342 343 344 344 345 345 345 346 346 347 347 348 348 347 345 345 346 346 348 349 350 350 350 349 350 349 350 350 350 349 348 348 349 348 348 348 348 347 348 351 353 352
321 321 323 324 321 322 323 324 322 322 321 320 321 323 323 324 323 324 326 328 330 333 338 339 338 341 344 344 345 343 342 343 342 341 342 342 341 340 339 339 338 338 339 340 340 342 343 343 343 344 344 345 345 346 347 347 348 348 348 347 344 342 344 348 350 350 349 348 348 348 348 347 347 347 347 348 348 348 348 348 348 349 347 347 351 353
322 321 323 322 318 317 321 322 321 322 322 319 320 322 322 323 322 323 328 331 330 333 337 336 334 338 342 344 344 343 343 343 341 341 341 340 340 339 338 337 337 336 337 339 339 340 341 342 342 342 343 343 344 345 345 346 348 348 349 349 347 344 344 346 347 348 348 349 349 349 348 346 346 347 347 348 349 349 349 348 348 349 349 346 347 350
324 322 321 320 317 316 320 322 322 322 319 317 321 323 323 325 325 325 329 332 331 332 332 331 333 338 342 342 341 342 342 342 341 340 339 339 339 338 337 337 335 333 334 336 338 339 340 340 341 341 342 342 343 344 345 346 347 347 348 349 349 348 347 347 346 345 346 347 346 344 344 345 347 348 347 348 349 349 349 349 348 349 349 349 348 346
325 323 321 321 318 317 321 322 322 319 317 319 326 328 326 326 327 327 328 330 333 333 331 332 335 339 341 339 339 340 341 341 340 339 339 338 337 337 337 337 335 333 332 334 336 337 338 339 340 341 341 342 343 344 344 345 345 346 347 348 348 348 348 348 348 347 347 347 344 341 343 347 349 349 348 348 349 350 350 350 350 351 350 350 349 348
324 323 322 321 319 318 321 321 318 317 319 326 330 329 328 327 327 327 328 330 333 333 333 334 335 337 339 339 339 340 340 339 339 338 338 338 338 338 337 336 335 334 332 333 335 336 337 338 339 340 341 341 342 343 344 344 344 345 345 346 347 347 348 348 349 349 349 349 348 347 348 349 349 348 349 350 350 350 350 350 350 350 350 350 350 350
323 323 322 321 319 319 319 317 317 319 325 329 328 327 327 327 326 325 326 330 333 333 333 335 336 337 338 339 339 339 339 339 339 338 338 338 338 338 337 336 335 332 330 332 334 335 335 336 338 339 340 340 341 342 342 343 343 343 344 344 345 345 346 346 346 347 348 348 348 348 348 348 348 348 349 349 350 350 349 350 350 349 349 350 350 350
322 322 321 319 319 319 317 315 318 320 322 324 327 328 327 327 327 326 327 332 335 333 334 335 336 337 338 337 338 338 338 338 338 337 337 337 337 336 336 336 334 330 329 330 333 334 334 334 335 337 339 340 339 339 340 340 341 341 341 342 343 343 344 345 344 345 345 345 346 346 346 346 346 347 348 349 350 349 349 349 350 350 350 350 351 351
323 323 323 319 319 320 317 316 318 317 319 325 329 331 328 327 329 329 329 332 335 333 334 335 337 338 337 337 338 338 337 337 337 338 337 337 336 335 334 333 330 328 328 328 331 333 332 333 334 334 336 338 338 338 338 338 338 339 339 340 340 341 341 341 341 341 342 343 343 344 344 345 345 346 346 347 348 348 348 348 348 349 349 349 349 349
323 325 324 320 318 319 317 316 316 318 324 330 330 330 328 328 329 328 327 329 334 334 333 333 336 337 337 337 338 338 337 336 337 337 337 336 335 334 333 331 328 326 326 326 327 330 331 333 334 333 333 334 335 335 336 335 335 335 335 335 335 336 338 337 336 337 340 341 341 341 342 342 342 342 342 343 342 342 343 343 342 343 343 343 343 343
323 325 323 318 317 318 318 317 316 320 328 332 328 327 328 328 329 327 324 327 334 334 333 333 335 337 337 338 338 337 336 335 336 336 336 336 335 334 333 330 327 325 325 325 325 327 330 332 333 332 332 333 333 333 333 333 332 332 332 331 330 330 331 332 333 335 337 337 338 339 340 339 340 340 340 341 340 339 339 338 337 336 336 337 337 338
323 323 322 319 317 317 317 316 317 321 329 330 325 327 328 328 327 325 325 330 334 333 333 334 335 335 335 335 336 336 336 336 336 336 336 336 335 333 331 329 327 325 324 323 324 325 327 330 331 331 331 332 332 332 332 332 332 331 331 330 329 327 326 325 327 330 332 334 334 334 336 337 338 338 339 339 339 339 339 338 337 337 337 338 338 337
322 322 321 320 318 318 317 316 316 322 329 329 325 327 328 324 324 326 331 334 333 333 335 334 334 335 334 333 335 336 336 336 336 336 336 334 333 331 328 327 325 323 322 322 322 323 324 327 329 330 330 331 331 331 332 332 331 332 332 331 331 328 323 318 319 320 321 323 325 327 329 331 333 335 336 336 337 338 339 339 340 341 340 340 341 341
323 321 319 319 319 318 317 315 316 322 329 329 326 328 328 325 327 332 335 333 331 333 334 333 334 335 334 334 337 337 336 337 336 336 335 333 331 329 327 326 324 323 322 321 321 321 322 323 325 327 329 330 331 332 331 330 329 328 327 327 329 329 326 323 322 322 320 318 317 318 320 323 327 330 331 333 334 335 337 338 339 340 340 340 342 343
325 322 320 322 322 318 316 318 321 325 329 326 326 330 330 329 331 333 332 331 331 332 333 333 333 333 333 336 337 336 337 337 336 335 335 333 331 330 328 327 327 325 323 322 321 321 321 321 322 323 324 325 328 330 330 331 330 326 322 320 322 325 327 328 327 325 324 322 321 320 319 319 321 324 325 328 330 332 334 336 337 338 339 340 341 341
326 327 327 327 326 323 323 326 328 329 328 327 328 330 331 329 329 330 330 331 332 332 334 335 335 333 334 336 335 335 336 336 335 335 334 331 329 329 328 327 327 326 324 323 322 322 322 322 321 322 321 321 321 323 327 331 332 330 327 325 324 324 325 327 328 326 324 323 323 323 322 322 323 324 323 323 324 326 329 330 332 335 337 338 338 338
326 328 329 328 326 325 328 330 330 328 328 329 329 330 330 329 329 329 330 332 332 331 333 334 335 334 334 334 335 335 335 335 334 333 331 329 327 327 326 325 325 325 325 325 325 325 325 324 322 322 323 323 322 322 325 329 331 331 330 330 330 329 328 327 328 328 327 325 323 321 319 318 318 319 320 318 318 321 323 324 327 329 332 333 334 334
327 325 326 327 325 324 327 330 328 326 327 329 330 330 329 329 329 329 331 333 331 330 332 333 334 333 332 332 334 335 334 334 334 332 330 328 327 326 325 325 326 326 327 327 327 327 327 327 325 324 322 323 323 324 325 327 328 329 330 331 331 331 330 329 329 328 327 327 326 323 321 318 315 313 313 314 315 317 318 320 323 326 329 331 332 332
328 326 326 326 325 325 328 331 330 327 327 329 330 329 328 329 330 330 331 332 331 331 331 332 332 332 333 333 334 335 335 334 333 331 329 328 327 326 326 327 328 329 329 329 329 329 330 330 329 327 324 322 321 320 322 324 322 320 321 325 327 329 330 329 328 328 329 328 328 326 325 325 323 317 313 311 311 312 312 312 314 317 321 325 329 331
327 325 325 325 324 326 330 331 330 329 328 328 329 330 330 329 330 330 331 331 331 331 330 330 330 331 332 333 334 334 334 334 332 331 329 328 328 328 328 329 330 330 330 330 330 330 330 331 330 329 327 324 322 318 316 318 318 313 311 313 319 326 331 330 327 326 326 327 328 327 325 324 325 324 321 315 310 309 311 313 312 311 311 314 317 320
325 326 326 325 323 324 328 331 331 329 328 328 329 330 331 331 331 331 331 331 330 330 330 329 330 330 331 332 333 334 334 333 331 329 328 328 329 329 330 330 330 330 330 330 330 330 330 330 330 330 329 327 326 324 321 319 318 315 313 312 314 320 327 329 328 325 323 323 325 326 325 325 325 326 326 323 318 316 318 321 321 316 311 310 310 311
326 326 327 325 324 325 327 329 330 329 328 328 329 330 331 332 331 330 330 330 330 330 329 329 330 330 330 330 332 333 333 332 330 329 329 329 329 330 330 330 330 330 330 330 330 330 330 330 330 330 330 330 329 329 328 326 324 322 319 316 315 318 320 323 325 326 324 322 321 323 325 326 326 326 327 326 325 324 325 326 326 323 319 316 316 316
Wind_Speed
9 7 7 7 8 10 7 6 10 7 2 3 9 11 2 6 4 9 11 12 12 7 6 7 7 7 9 10 11 14 13 13 13 14 15 17 18 19 18 17 19 18 17 17 16 17 16 16 16 15 15 15 15 16 16 16 15 15 15 15 16 15 14 14 14 14 13 13 13 14 13 13 15 15 16 14 15 16 14 13 16 16 16 16 16 15
8 8 6 10 12 9 4 7 7 2 1 7 8 9 4 7 6 9 13 15 14 6 5 9 9 8 10 10 12 14 14 14 15 15 17 19 18 19 19 18 18 18 18 18 17 18 17 17 17 16 15 15 16 17 17 16 16 15 15 15 16 15 14 13 14 14 13 13 13 13 12 12 14 15 15 13 14 16 13 13 16 15 16 15 14 13
7 6 7 12 9 4 4 5 6 4 4 9 5 8 6 6 8 8 12 14 11 4 6 11 9 8 9 9 11 14 14 15 16 17 16 17 18 19 19 19 20 18 19 20 19 19 18 18 18 17 16 16 17 17 17 17 16 16 15 16 16 16 15 14 14 14 13 13 13 12 11 12 13 13 13 12 13 14 12 13 15 15 15 14 13 12
5 3 2 4 4 5 7 7 7 5 5 7 6 9 5 7 7 5 7 9 7 3 10 12 7 5 5 5 7 12 14 14 14 16 17 15 17 18 17 19 20 19 19 21 21 20 19 19 18 17 17 17 17 17 17 18 17 17 16 16 16 16 16 15 15 14 13 14 13 11 11 12 12 12 13 12 12 14 12 12 14 13 14 14 12 11
7 3 4 6 7 4 8 8 9 6 6 8 8 9 7 6 4 7 10 9 7 7 12 13 5 2 4 5 6 7 9 10 10 12 18 18 17 17 17 17 19 20 19 20 21 21 20 20 19 18 18 18 18 18 18 18 18 17 17 17 16 16 16 16 17 15 14 15 15 13 13 14 13 12 13 13 13 14 13 12 12 12 13 13 10 10
3 5 4 5 5 5 6 6 8 6 5 8 8 9 10 12 10 4 10 6 5 6 9 9 2 1 5 8 8 3 4 7 4 5 14 17 15 16 18 18 18 19 19 19 20 21 20 20 19 18 18 19 18 18 18 18 18 18 18 18 17 17 16 16 17 17 16 17 18 16 15 15 15 13 13 13 13 14 13 12 11 10 12 13 10 10
0 5 4 6 6 6 7 7 9 7 6 6 4 6 7 8 11 6 1 1 3 2 7 12 6 2 5 7 6 2 1 4 5 4 12 15 13 16 18 17 17 17 19 19 19 20 21 20 20 19 18 19 18 18 18 18 18 18 18 18 18 18 17 16 18 19 18 18 18 17 15 14 15 14 13 13 12 13 13 12 11 10 11 12 9 9
4 3 1 4 6 7 7 5 6 6 7 3 7 10 7 4 6 7 5 6 6 3 7 12 6 2 5 5 4 4 3 1 5 6 9 13 14 14 15 15 17 17 18 19 19 19 20 21 20 20 19 19 18 18 18 18 18 19 19 18 18 19 18 17 18 19 18 18 18 17 15 13 13 12 13 14 12 12 14 13 11 10 11 11 10 9
5 3 2 5 8 5 3 2 3 2 7 4 11 9 8 7 6 6 7 7 6 6 7 6 4 2 3 4 6 7 5 4 8 9 7 10 14 13 15 14 14 16 16 18 18 18 19 21 20 19 19 19 18 18 18 18 18 19 19 18 19 19 18 17 18 18 18 18 18 17 14 13 13 12 12 14 12 12 14 13 12 11 10 11 11 10
1 4 4 5 7 3 5 5 5 3 8 6 10 7 6 6 7 7 7 7 6 8 6 3 4 4 2 3 3 3 2 3 5 7 5 8 10 12 16 16 10 12 12 15 18 18 18 20 20 19 19 19 19 19 18 18 18 20 19 18 19 19 19 17 17 17 18 18 18 18 15 14 14 13 12 14 13 13 15 13 13 14 12 10 10 10
2 3 3 6 6 6 6 4 1 4 9 7 5 6 6 6 6 5 5 5 6 6 7 7 8 6 1 2 1 1 2 2 3 4 4 5 8 11 13 14 11 10 11 14 16 18 19 18 19 20 18 19 19 19 19 18 18 19 18 18 19 19 19 18 17 17 18 18 19 18 16 14 15 14 13 14 15 15 16 15 13 14 15 12 9 10
4 6 5 5 5 4 5 4 3 5 7 6 5 6 7 6 4 3 4 4 6 6 6 10 10 4 1 2 3 2 4 2 1 2 2 3 6 8 9 13 14 11 12 15 13 15 20 20 19 20 19 19 19 20 21 20 19 19 18 19 19 19 19 19 18 18 18 18 18 18 17 16 16 16 14 15 16 16 16 16 15 14 15 14 11 10
6 6 6 6 6 5 7 5 6 7 5 4 5 6 6 3 3 3 5 4 6 7 9 12 8 3 2 2 5 6 4 2 0 2 3 3 4 6 9 12 14 13 16 18 14 12 17 20 20 20 20 20 19 20 21 21 21 20 18 19 19 18 20 19 18 19 19 19 18 18 19 17 17 18 15 14 15 15 16 16 15 15 15 14 13 12
6 7 7 6 6 6 7 6 4 4 5 5 5 5 4 3 3 4 5 4 4 6 7 9 7 6 4 3 5 7 6 4 3 2 3 4 5 6 8 10 13 15 16 19 17 13 13 19 21 20 20 21 20 19 21 23 23 22 20 19 18 17 19 19 17 18 20 20 19 18 19 18 18 19 17 14 14 15 15 15 15 15 14 13 13 12
1 4 7 3 4 5 6 6 6 6 6 4 3 5 6 3 4 5 4 5 5 4 2 4 6 5 5 5 6 11 10 4 3 5 5 5 5 5 6 9 12 13 14 18 20 16 12 15 20 20 20 21 21 20 22 24 24 24 23 21 19 18 18 18 18 18 19 20 20 19 18 18 17 18 18 16 15 15 14 14 15 14 13 12 12 12
2 2 7 8 5 5 8 7 6 7 7 3 1 4 5 2 3 6 5 5 7 6 2 4 5 5 7 7 9 15 9 2 3 4 5 6 5 3 0 4 8 10 13 19 22 19 13 13 18 20 20 21 21 20 20 23 24 24 23 21 19 17 17 17 18 18 19 19 20 20 18 17 17 17 17 17 17 16 15 14 15 15 14 13 11 11
1 2 6 5 6 7 6 6 6 7 5 5 3 1 5 6 5 5 5 6 8 6 3 5 8 7 8 7 7 13 9 2 4 5 4 6 6 8 8 4 3 6 12 20 25 23 17 14 16 17 19 21 21 20 21 22 23 23 23 22 20 18 18 17 17 17 18 18 19 20 20 19 17 17 17 17 17 16 15 14 15 15 15 15 13 12
4 2 2 4 4 4 1 7 9 9 8 7 3 6 8 9 4 3 3 5 4 5 5 4 11 8 6 4 4 8 9 4 4 6 5 5 6 9 7 7 7 5 12 18 22 24 21 16 14 13 15 18 19 20 21 21 21 23 24 23 21 20 20 19 17 17 18 19 19 20 21 21 19 17 17 17 17 16 16 15 16 15 15 16 15 13
5 5 4 2 4 4 4 6 7 8 11 11 7 7 7 6 3 2 2 5 4 5 6 4 13 9 4 5 5 5 6 4 4 5 5 5 5 6 5 5 5 2 8 12 15 19 21 19 16 14 12 15 17 17 17 18 19 20 22 23 22 20 20 19 18 18 18 19 19 19 20 21 20 19 18 17 17 17 16 16 17 16 15 15 16 16
4 6 2 6 1 1 5 4 5 7 10 8 8 6 4 4 4 2 2 3 4 5 6 3 11 7 3 5 6 6 5 3 3 3 5 6 5 4 4 5 5 3 2 5 8 14 20 22 21 16 11 13 16 13 13 18 20 17 18 21 21 20 20 19 18 19 20 19 19 19 19 21 21 20 20 19 18 18 18 18 17 17 16 16 15 16
4 5 3 4 2 2 3 2 4 4 4 5 5 4 4 3 3 4 3 3 3 3 5 3 2 4 4 4 4 5 4 4 4 2 4 8 5 3 5 6 5 4 1 2 4 7 13 17 19 17 13 13 14 10 10 18 22 18 15 15 18 21 21 19 18 19 20 19 19 19 18 19 21 21 21 20 19 19 19 19 19 18 17 17 16 16
2 3 5 4 3 2 1 3 4 8 5 1 4 3 4 4 5 5 5 5 5 3 4 6 1 4 3 5 6 4 4 5 5 4 5 9 6 2 5 7 5 5 3 1 2 3 4 7 11 14 14 13 11 10 12 16 19 18 15 12 17 23 21 18 19 19 18 18 18 19 19 18 19 20 21 20 20 20 19 19 19 19 18 18 18 18
1 4 5 7 8 4 5 4 3 7 6 4 5 4 5 4 2 4 5 5 7 7 8 7 1 4 3 5 6 8 10 13 15 13 10 11 9 6 7 8 6 6 5 2 1 1 2 2 4 8 12 12 9 6 9 14 17 20 20 14 13 20 21 17 16 16 16 18 17 17 18 18 19 20 20 20 20 20 20 19 19 19 19 19 19 19
1 3 5 7 8 7 4 3 1 2 4 5 6 6 5 4 4 4 4 5 6 7 8 6 1 3 2 3 5 8 10 13 16 16 14 13 12 8 6 5 5 7 7 5 3 1 2 5 4 3 6 10 12 9 5 8 11 15 20 16 10 14 18 15 15 15 17 19 18 16 17 17 19 21 20 20 20 20 20 19 19 19 19 19 19 19
2 2 3 5 6 6 7 6 4 3 1 4 7 7 3 2 7 6 4 4 5 7 8 7 2 3 1 1 5 8 9 8 10 11 11 13 14 10 8 7 7 8 8 6 5 3 2 6 10 9 7 8 10 10 7 6 4 4 11 15 12 12 13 12 14 16 16 18 19 20 19 16 15 19 21 20 18 19 19 19 19 19 19 19 20 19
5 2 2 4 5 4 2 1 1 1 2 3 4 4 1 1 6 5 3 4 4 5 6 5 2 4 3 1 5 8 7 7 10 10 10 12 14 13 12 12 10 10 11 10 7 6 6 5 6 10 10 11 11 11 9 7 5 4 7 11 14 14 12 11 13 15 15 17 19 20 18 16 15 18 20 20 17 17 20 20 19 19 20 19 19 20
5 5 5 6 8 7 4 4 5 4 6 6 5 7 5 3 3 2 3 4 3 4 3 3 4 2 4 3 6 7 6 6 8 10 11 13 13 13 12 13 13 13 13 12 11 10 9 10 6 2 4 6 9 11 13 13 9 5 6 10 14 16 15 14 12 13 14 15 16 17 16 15 16 18 19 19 17 17 19 20 18 17 19 20 20 20
4 5 8 9 9 9 8 9 9 6 8 10 10 10 7 5 4 3 5 5 4 5 2 4 5 3 3 4 6 6 5 5 7 9 12 12 12 12 12 12 13 14 13 10 10 10 9 8 6 3 2 1 3 6 8 12 12 10 7 8 9 10 12 14 13 12 12 12 12 14 15 14 16 17 18 18 18 17 17 19 20 18 16 18 20 20
5 7 9 11 12 13 12 10 10 9 8 9 10 9 8 7 6 5 7 7 4 5 2 4 3 3 3 4 6 7 5 6 7 9 12 14 13 12 13 14 14 14 14 11 9 9 8 8 6 4 3 2 2 2 2 4 7 9 11 10 9 6 7 9 11 12 13 12 12 14 15 16 16 17 17 17 19 20 19 19 19 18 17 17 18 19
4 5 7 11 13 10 7 6 9 9 9 9 8 7 8 8 7 6 7 5 3 4 3 3 1 1 3 4 6 8 7 7 6 7 11 12 12 12 13 15 15 14 13 12 10 9 8 7 7 5 4 4 4 3 1 1 2 4 7 9 11 11 9 8 9 10 11 11 12 13 14 15 16 16 17 17 18 19 19 18 17 18 19 18 16 17
4 3 5 7 10 8 5 9 11 9 9 10 8 7 8 7 8 8 5 3 3 2 5 4 1 2 3 5 6 8 8 7 6 7 10 10 10 11 12 13 14 15 15 14 13 11 9 8 7 7 6 5 5 4 2 1 1 2 3 5 8 11 12 11 9 9 8 8 9 9 10 11 12 13 14 15 16 16 18 18 18 18 19 18 17 18
6 4 6 4 5 7 9 12 11 6 7 10 9 10 10 8 8 6 1 3 4 1 5 3 2 2 4 5 6 6 7 7 6 8 10 10 9 10 12 12 12 14 14 14 14 13 11 9 8 7 7 6 6 6 5 3 1 1 1 2 4 8 12 13 12 10 8 7 7 8 9 10 11 12 13 14 15 16 18 19 19 19 20 22 23 23
3 4 5 5 6 7 8 9 7 4 6 7 6 7 6 5 4 3 2 2 3 2 1 1 2 4 6 6 4 5 7 7 7 8 9 10 9 9 11 11 12 13 12 13 14 14 12 11 9 8 8 7 8 8 6 5 4 3 2 1 2 4 6 8 11 13 13 13 13 12 13 14 14 13 13 14 15 16 19 20 20 20 22 24 26 27
4 4 6 6 6 7 5 3 3 5 5 2 3 6 5 3 2 3 2 1 2 2 2 3 4 5 7 5 3 6 8 8 8 9 8 9 9 9 9 9 10 12 12 12 13 13 13 12 10 8 8 9 9 9 8 7 6 5 5 4 2 1 3 3 6 8 10 11 12 13 13 14 14 13 14 15 15 16 18 19 18 18 19 21 22 22
5 6 5 5 5 8 6 2 4 6 2 3 4 4 4 4 3 3 5 3 1 3 3 5 6 6 5 4 6 9 10 10 10 10 9 8 8 8 9 8 8 10 13 13 12 12 12 12 11 9 9 10 12 11 11 11 9 7 7 6 4 2 0 2 4 6 7 9 10 12 13 13 14 14 14 15 16 16 16 18 18 17 17 18 18 18
6 5 4 4 5 6 6 5 5 3 5 6 4 2 1 2 3 5 5 2 4 5 3 4 7 7 7 8 10 11 12 11 10 9 8 8 8 7 7 7 8 9 12 13 10 10 12 12 11 11 10 11 14 14 13 12 10 9 8 6 4 4 2 0 2 4 6 9 11 12 13 12 13 14 13 12 12 12 14 16 16 15 15 16 16 17
7 6 5 4 5 5 6 6 5 4 5 5 5 6 2 1 1 2 2 2 5 5 4 3 6 8 8 9 10 10 11 9 7 7 6 5 6 6 6 7 8 9 11 13 10 10 13 12 11 10 10 11 15 16 15 13 10 8 9 8 8 7 5 5 5 5 4 4 4 4 4 5 7 9 11 11 10 9 10 12 12 12 13 14 16 17
8 5 5 5 5 6 7 6 7 7 4 1 6 6 2 1 1 0 1 1 3 5 5 4 8 10 8 5 8 9 8 4 2 4 6 4 5 6 7 7 8 9 11 13 12 9 10 9 9 10 12 12 13 14 15 14 13 11 11 11 11 11 11 10 10 10 11 10 9 8 6 4 3 3 5 6 7 7 7 8 9 9 10 12 13 16
7 6 5 6 7 6 7 6 6 5 1 2 2 2 2 2 1 2 2 2 3 5 5 4 8 12 9 6 7 7 5 3 1 4 8 7 5 6 6 6 7 9 12 14 12 7 4 4 7 12 17 18 16 14 13 14 14 14 15 14 13 13 13 12 13 13 13 12 11 10 9 8 7 6 5 5 5 5 5 5 5 5 6 8 10 12
8 6 6 7 7 7 7 6 5 3 3 5 3 1 3 3 1 4 3 2 4 5 6 5 8 12 9 7 6 5 4 1 2 5 8 8 6 5 6 6 6 9 12 13 10 4 3 4 8 13 16 17 17 14 12 12 14 15 15 15 15 16 15 14 14 14 13 12 12 11 10 9 8 7 6 5 4 3 3 3 4 4 4 5 6 8
7 7 6 7 8 8 8 7 5 1 5 5 3 1 4 3 1 3 2 3 7 8 7 8 11 11 8 7 6 5 1 3 6 9 10 9 8 7 8 8 8 9 10 10 8 4 4 7 9 11 12 13 12 10 10 12 14 15 15 15 15 16 15 14 14 13 13 13 13 12 12 11 10 8 7 5 4 3 3 3 2 2 3 4 5 7
6 6 7 8 8 7 7 8 7 2 2 0 2 7 7 1 2 1 2 6 10 11 9 10 11 11 9 7 5 4 4 7 10 12 11 10 9 8 7 8 8 9 10 10 9 7 7 7 9 10 11 11 10 9 9 11 13 14 14 14 15 14 13 14 14 13 13 13 12 12 12 11 11 9 8 8 7 5 4 3 2 2 3 4 5 6
5 6 7 7 7 7 7 8 6 2 1 1 3 7 5 2 2 6 6 6 8 11 13 12 11 10 10 9 7 7 9 12 13 12 11 10 9 9 10 10 10 10 10 9 9 8 8 8 9 10 9 10 10 9 9 11 13 12 12 12 12 12 12 13 13 13 14 15 15 14 12 12 11 10 9 9 8 7 6 4 4 3 3 3 4 5
4 5 6 4 3 6 6 4 2 2 4 3 3 5 4 4 7 8 6 5 5 9 13 13 11 11 11 12 12 11 12 13 13 12 12 11 9 9 10 10 9 10 10 10 10 10 9 9 10 10 9 9 10 10 11 13 13 12 12 12 12 11 12 13 12 13 14 15 16 16 16 15 14 12 11 11 9 9 9 8 6 5 4 3 3 4
3 2 2 2 4 4 1 3 1 2 5 5 6 8 8 7 6 5 5 3 5 9 14 14 13 14 14 15 15 13 13 14 13 13 13 11 10 9 9 9 9 9 10 11 11 11 11 11 11 11 11 10 9 10 12 13 13 13 13 12 12 12 13 13 13 13 13 13 14 14 14 14 14 14 13 12 10 10 11 11 11 9 8 7 5 5
4 5 4 3 3 2 4 7 4 2 3 5 7 8 7 6 6 6 5 4 4 8 11 12 14 14 15 17 17 15 15 15 14 13 12 11 11 11 10 10 10 10 10 11 11 11 10 10 11 12 12 11 10 10 10 11 12 13 12 11 10 11 12 13 13 13 13 13 13 13 13 13 14 14 13 13 13 12 12 12 12 11 10 10 10 9
5 9 8 4 4 4 2 3 2 4 4 5 6 6 5 5 5 5 6 6 5 6 9 12 14 14 14 15 16 14 15 16 15 13 13 13 13 13 12 12 11 11 11 10 9 9 9 9 10 11 11 11 11 10 10 10 10 11 11 10 9 9 10 11 12 12 12 12 12 12 13 15 15 15 15 14 14 14 14 14 13 12 12 12 12 12
3 7 8 7 6 4 3 2 2 4 4 6 6 5 6 6 6 5 7 8 7 6 8 11 13 15 16 17 16 15 16 16 15 15 15 15 14 13 13 12 12 11 10 9 8 8 8 8 9 9 10 11 11 10 10 10 10 9 9 9 9 10 11 11 10 10 10 10 11 12 12 12 14 15 15 15 14 14 15 16 15 14 13 13 12 11
1 4 4 4 4 3 6 4 2 2 3 7 7 7 7 8 8 7 8 8 8 8 9 10 10 13 16 18 18 18 17 16 15 16 16 15 14 14 13 12 12 11 10 9 9 8 8 8 8 9 10 10 10 10 11 11 10 11 10 10 9 10 11 11 10 9 8 8 9 10 10 9 10 11 13 14 14 14 16 18 18 17 15 13 12 11
6 6 4 3 5 5 4 9 9 5 2 3 6 8 10 10 10 9 9 9 9 9 9 10 10 11 13 15 17 18 17 16 16 16 17 16 15 14 14 13 12 11 10 9 9 9 9 8 8 8 9 9 10 10 10 10 10 10 10 10 10 10 12 13 11 9 8 7 9 9 9 8 7 8 8 8 10 12 15 17 19 18 16 15 14 13
9 7 4 5 5 2 3 11 13 8 2 1 5 8 11 11 10 11 10 10 11 10 10 10 11 12 13 14 15 16 17 16 17 17 17 16 15 15 14 13 12 11 10 9 9 9 8 8 8 8 8 8 8 9 9 9 10 9 8 8 8 8 9 10 11 9 8 7 8 9 9 7 6 7 7 7 9 12 12 13 16 16 15 15 16 15
Wind_Direction
211 225 226 234 238 238 247 269 255 230 214 283 279 279 218 111 102 132 145 164 162 140 133 142 134 157 181 182 191 194 204 222 231 245 223 195 185 182 187 179 172 178 176 174 174 169 167 166 165 165 166 165 162 161 160 157 157 157 162 167 162 160 168 165 151 145 144 142 146 149 148 144 142 145 149 147 149 155 166 170 165 168 169 167 169 170
205 246 243 242 246 244 299 338 302 260 236 252 255 282 254 140 141 147 148 162 169 152 146 163 155 177 195 185 191 193 196 211 222 233 217 197 191 186 188 183 176 179 175 175 177 172 170 169 167 167 169 168 165 164 163 162 162 162 165 167 165 166 169 164 153 149 149 151 151 150 150 147 146 149 147 147 155 157 165 170 165 168 169 169 172 172
197 234 236 242 258 295 313 324 327 351 299 278 271 282 270 147 156 160 145 159 176 161 154 173 169 179 198 191 193 196 200 208 215 231 225 203 197 193 189 183 179 182 178 176 178 176 173 172 170 168 172 172 168 168 166 168 165 164 169 169 169 170 166 163 160 158 157 155 149 147 153 148 147 151 147 152 158 155 164 171 164 167 171 169 171 171
233 239 275 295 29 9 303 274 284 299 279 274 260 273 268 165 180 165 147 164 175 160 158 169 171 176 197 206 211 212 213 209 208 235 248 226 206 200 194 185 181 182 182 178 176 178 176 174 173 171 175 173 170 171 169 171 168 168 180 176 171 171 166 167 168 163 161 156 148 153 161 150 149 156 151 152 155 153 160 166 163 167 169 166 169 171
276 337 28 10 30 345 292 272 263 263 261 258 240 267 289 247 229 133 154 177 175 171 154 146 140 190 210 215 228 238 233 218 195 217 243 235 215 205 198 190 186 182 183 182 177 179 179 176 176 175 176 175 174 175 173 175 172 172 184 181 173 171 170 174 172 163 166 165 157 159 160 148 152 159 152 153 156 155 158 164 168 169 167 165 169 172
292 27 34 317 315 288 280 268 256 245 259 268 236 236 259 274 284 166 157 171 185 188 159 152 149 237 222 221 224 237 240 237 215 214 241 236 220 215 205 191 190 185 182 186 182 180 181 177 177 177 179 178 177 179 177 177 175 175 183 183 178 172 170 178 174 166 175 176 168 163 158 154 159 158 153 156 158 158 160 168 177 175 168 168 172 176
143 51 16 304 298 266 257 251 250 246 250 263 272 266 249 251 276 290 352 243 246 233 185 202 224 178 202 229 236 237 281 290 317 285 252 245 226 220 214 194 190 189 183 188 188 184 182 178 179 180 183 183 180 181 180 179 178 178 182 184 182 176 171 180 179 175 181 180 176 173 167 164 165 161 158 158 161 164 160 170 184 180 176 177 171 173
190 169 117 282 272 244 242 235 222 223 237 271 6 332 303 301 309 324 322 273 276 294 204 214 239 164 173 198 169 134 131 303 286 247 233 249 247 232 224 202 190 193 188 186 190 189 184 180 183 184 185 186 184 183 181 180 179 180 187 186 183 179 175 181 185 182 184 181 180 178 171 170 167 164 164 158 164 169 160 172 187 178 184 184 168 177
197 217 111 233 242 241 281 17 69 221 246 325 14 340 309 330 318 293 277 268 283 279 237 225 275 288 148 143 122 121 146 192 235 238 201 226 248 242 238 227 198 195 193 186 190 195 189 184 185 187 189 188 185 185 182 180 178 181 191 188 182 182 178 184 189 186 186 184 182 177 171 176 171 165 170 161 163 171 165 175 183 176 193 200 182 185
139 317 359 260 252 325 357 19 46 313 273 334 2 325 295 303 280 274 278 278 286 276 264 256 256 255 109 90 85 108 149 194 226 251 220 211 232 230 243 252 222 192 195 194 194 196 194 189 187 189 193 189 185 184 182 179 176 178 190 189 186 185 181 187 191 186 188 189 187 178 172 183 173 164 177 169 166 179 176 177 181 179 191 206 201 193
109 269 298 272 285 345 337 326 9 275 279 299 310 274 255 248 253 274 270 268 284 270 263 261 247 244 103 73 283 135 111 161 213 247 240 234 238 223 234 251 235 209 210 207 200 197 196 192 190 192 194 190 185 182 180 178 177 179 188 190 189 188 184 190 194 188 189 192 194 183 174 185 176 168 187 185 178 186 183 180 185 188 190 195 204 205
167 198 205 228 260 291 280 269 218 236 268 272 258 266 260 223 198 252 244 237 266 260 253 248 237 233 91 145 201 123 93 128 242 284 260 262 257 239 232 230 228 230 221 211 205 200 195 194 194 195 197 194 186 181 180 180 179 180 187 190 191 191 187 193 196 191 191 194 198 192 182 186 178 173 194 200 192 194 193 187 188 197 198 192 192 202
190 178 175 188 200 244 259 242 214 214 225 238 241 258 264 227 169 247 258 236 237 242 241 233 216 145 90 124 138 131 119 128 149 281 275 290 284 271 260 239 232 233 221 216 216 204 194 196 199 198 196 194 189 185 181 184 183 179 186 193 192 190 191 198 199 193 195 195 198 199 193 193 187 179 194 206 200 201 202 196 193 202 207 200 194 192
175 162 176 186 170 200 248 259 247 219 214 222 228 239 246 232 230 248 259 266 247 247 240 214 171 124 133 147 128 114 89 61 27 339 316 314 294 273 264 249 240 235 227 223 218 209 204 202 201 202 199 193 193 190 181 184 188 181 184 195 194 190 193 200 200 196 199 197 196 201 199 200 197 190 193 201 199 203 206 200 197 204 210 208 201 194
165 168 175 147 116 174 245 289 326 315 272 238 204 256 271 250 258 274 279 292 290 304 315 154 139 135 153 154 108 90 82 69 21 12 17 6 330 282 244 236 238 234 230 226 217 215 227 214 203 204 201 194 196 194 182 184 191 186 187 195 195 193 195 200 202 201 203 200 198 201 200 203 206 199 197 198 196 200 203 201 200 202 206 212 211 200
313 128 128 110 115 224 276 325 327 287 280 297 209 250 282 270 258 268 271 300 301 299 323 108 101 99 121 112 92 94 100 144 86 49 21 27 25 13 168 225 249 245 229 224 218 214 219 217 211 209 203 198 200 197 188 191 196 191 191 198 198 197 198 200 202 203 206 205 202 202 201 203 209 207 203 202 201 200 201 202 203 205 203 207 222 220
299 96 128 158 194 216 269 314 289 273 295 309 289 326 312 304 308 291 289 333 328 296 257 125 104 102 109 99 101 113 119 140 104 89 39 34 53 54 65 123 214 250 232 220 216 216 220 214 208 209 208 205 204 201 198 199 200 196 195 201 203 202 201 201 203 205 207 209 206 206 206 203 209 213 207 206 207 201 201 207 208 211 208 203 213 223
338 310 172 239 248 162 230 297 280 284 291 277 304 17 330 299 334 2 310 320 316 279 275 136 124 123 113 109 129 116 110 116 114 101 78 56 64 69 87 146 157 208 228 214 209 219 226 213 201 212 215 205 200 204 204 198 195 196 199 203 203 203 202 200 202 203 205 210 208 209 210 205 205 212 208 208 212 205 201 210 213 214 216 210 206 210
332 280 158 153 290 160 172 264 255 247 256 263 294 337 313 293 340 38 283 289 281 271 290 97 109 109 107 133 142 98 89 104 95 93 99 82 69 81 111 135 112 186 225 208 210 224 225 213 212 223 219 201 196 204 210 202 195 195 199 202 201 203 204 200 200 201 203 209 208 208 213 211 206 208 208 207 212 211 205 210 215 214 216 219 212 207
304 284 158 134 286 217 177 220 252 223 212 237 275 280 270 283 293 261 223 280 300 297 297 78 97 91 86 109 116 102 94 100 89 90 106 99 88 88 91 86 77 61 229 203 219 234 227 221 222 221 214 205 199 202 212 209 207 202 194 196 201 205 206 201 198 200 201 205 207 207 214 216 210 207 208 208 210 213 211 212 215 215 214 218 219 215
260 282 266 165 172 262 198 172 323 314 180 203 257 260 257 270 281 278 270 276 276 276 287 297 78 95 85 63 78 102 102 103 106 110 105 100 105 111 80 76 93 88 38 223 229 248 232 224 226 222 216 210 203 213 221 208 211 214 201 199 208 211 210 204 200 203 204 203 203 205 211 217 216 212 210 210 211 213 216 216 216 217 217 217 218 220
260 294 299 276 238 245 98 89 350 344 13 330 276 299 318 335 353 325 307 304 290 287 311 301 325 96 56 15 22 20 13 41 63 63 87 87 78 66 66 61 65 71 57 222 233 286 247 217 221 217 213 210 206 227 236 215 209 210 205 206 213 212 208 203 204 209 209 205 204 208 210 213 218 218 215 215 215 215 217 218 218 217 218 219 219 219
353 317 306 286 282 324 29 50 333 331 345 322 293 306 313 314 321 283 286 308 308 324 334 309 263 102 57 28 32 17 12 17 19 20 33 53 48 19 38 59 66 83 95 135 151 338 290 234 224 197 190 187 175 190 226 221 217 214 211 214 215 208 202 201 210 213 210 207 209 213 213 213 217 218 217 218 219 220 219 219 220 220 219 221 222 223
164 269 276 278 293 306 283 218 146 346 310 295 281 265 260 290 321 303 303 318 305 313 322 301 259 98 65 41 58 54 46 33 23 20 19 33 40 15 11 46 65 87 107 140 152 143 254 235 240 226 188 179 161 140 148 198 218 221 216 215 211 205 204 213 226 222 212 209 208 210 213 218 223 221 219 221 222 223 224 223 223 223 222 223 224 225
275 236 243 268 280 265 239 211 153 118 244 253 255 244 204 320 315 303 302 307 294 305 315 306 317 90 48 353 78 72 67 65 51 37 26 36 43 23 7 18 24 54 80 113 143 135 147 201 216 234 251 228 192 167 148 156 176 211 214 212 210 211 214 221 221 212 212 216 216 217 217 218 230 231 225 224 225 228 230 228 227 227 225 226 227 226
300 308 298 279 271 272 302 317 254 323 303 253 252 274 220 222 275 282 294 282 276 303 314 315 7 114 149 137 83 70 58 68 67 56 49 53 54 44 34 34 36 52 64 71 86 95 96 120 194 225 244 250 231 214 206 196 176 149 171 190 201 214 222 219 212 207 214 226 229 231 232 233 244 243 232 227 232 238 235 228 228 231 230 230 232 229
299 303 297 286 284 295 323 315 290 278 278 282 302 310 306 284 266 283 290 281 301 317 320 19 26 101 146 112 74 68 54 59 62 58 58 58 59 57 47 41 42 50 61 68 69 71 85 90 95 168 237 253 249 243 235 231 230 203 158 169 191 209 216 213 216 218 222 230 230 232 236 238 242 244 240 241 247 245 236 234 243 246 238 234 235 235
285 274 267 262 265 271 270 270 271 263 267 284 299 304 309 316 309 293 278 277 303 302 300 59 15 359 114 110 89 82 69 64 60 56 61 66 66 64 59 50 42 42 51 66 67 59 63 74 79 72 36 298 253 254 242 242 251 247 219 193 193 206 214 212 212 215 221 230 233 232 233 233 234 240 247 254 254 249 247 253 257 255 247 240 237 236
261 264 262 261 254 245 242 253 264 267 274 280 285 295 302 299 296 291 283 286 306 303 302 92 34 11 93 117 104 93 82 75 67 61 70 77 74 68 62 55 46 42 46 57 65 64 61 61 59 41 10 344 303 289 241 238 252 248 236 227 220 228 238 226 214 210 213 219 227 233 236 236 238 243 248 249 247 253 263 264 256 252 256 253 241 233
236 264 269 284 285 262 235 259 272 266 272 276 275 278 280 285 290 284 286 307 339 328 354 73 76 68 99 102 103 112 113 98 88 85 82 80 76 72 64 55 49 42 40 45 56 63 66 66 64 55 35 11 356 345 318 255 254 258 252 242 233 234 240 237 222 214 212 214 220 228 234 238 241 243 247 249 250 256 262 260 256 257 261 262 254 241
170 292 291 294 304 298 267 266 264 254 260 269 266 256 255 266 275 269 278 336 335 9 59 70 158 176 123 102 106 122 123 111 105 97 86 77 75 76 69 60 53 45 38 38 43 50 57 62 61 60 56 46 31 20 17 354 259 247 268 261 239 228 227 224 208 198 202 214 225 233 240 247 249 247 249 251 253 253 251 250 253 255 254 257 260 255
158 280 292 273 276 276 256 245 239 238 262 266 263 258 242 232 256 265 94 36 321 37 113 140 225 162 129 128 130 125 119 115 102 90 86 80 76 81 81 75 67 57 51 49 44 41 42 47 51 49 49 50 44 36 40 40 33 168 193 252 235 223 227 227 222 219 222 231 241 256 271 275 271 267 262 257 253 247 245 249 252 252 251 251 254 259
184 264 276 265 265 265 245 226 222 240 261 261 278 288 253 212 249 289 103 111 295 287 212 266 22 98 128 145 149 126 112 104 87 83 94 95 89 89 88 86 82 74 65 60 54 44 35 34 38 38 35 44 50 46 48 55 58 71 85 120 210 218 230 236 238 241 244 247 252 267 286 291 288 284 277 268 261 253 249 251 254 254 254 253 253 257
216 250 278 285 282 280 267 189 205 261 262 253 27 8 0 27 11 325 319 329 352 31 53 57 74 112 136 145 137 112 100 96 94 92 96 100 99 92 85 84 87 82 71 63 59 54 47 39 36 37 40 48 55 54 52 56 61 63 60 55 57 222 235 250 254 250 252 256 258 265 278 286 287 285 278 270 265 260 255 253 252 251 252 253 255 255
213 207 245 275 273 279 281 222 230 258 242 103 72 31 351 350 348 291 264 256 96 79 77 92 98 103 112 115 111 107 102 103 108 107 100 94 92 90 90 86 81 79 77 72 61 54 54 51 41 37 45 55 59 61 62 61 61 61 58 52 42 35 353 261 262 259 261 259 251 250 256 264 269 272 270 268 268 266 262 259 255 252 253 254 255 257
265 243 232 238 248 268 274 261 255 223 156 156 153 115 37 320 301 271 248 189 96 75 57 85 107 110 111 113 110 111 113 110 107 106 103 95 93 94 95 94 86 75 74 75 68 53 52 56 50 39 45 61 61 58 60 63 68 72 69 59 43 34 44 117 232 237 241 239 237 239 244 252 264 272 275 278 282 278 269 264 261 258 257 258 260 261
243 277 279 245 234 247 257 259 258 234 209 200 154 113 84 307 276 282 296 56 82 95 90 77 90 90 90 105 117 120 121 115 104 106 105 91 92 97 94 96 96 81 71 74 76 61 49 50 53 50 54 66 64 59 55 51 57 75 79 74 71 75 88 103 112 125 144 169 188 208 233 255 273 281 283 286 293 291 277 268 267 266 263 263 263 264
207 229 270 275 256 246 251 259 265 264 264 96 103 112 124 334 26 205 201 128 104 111 109 95 91 88 87 121 139 134 132 131 127 140 138 121 99 99 94 90 92 91 83 76 71 58 43 43 55 59 60 64 66 68 67 57 51 63 78 85 92 96 97 95 93 93 92 88 85 83 78 65 39 357 319 305 304 304 294 284 280 279 278 276 273 273
231 200 218 264 272 264 260 249 253 267 246 124 123 135 132 79 4 249 203 148 114 107 108 112 107 108 121 153 153 156 181 208 189 161 155 146 129 110 99 91 89 89 82 74 69 60 44 64 70 55 51 55 56 61 72 73 67 69 75 82 90 93 89 81 74 74 77 77 75 73 70 64 58 46 31 21 11 358 343 335 332 320 306 297 291 293
251 228 209 232 250 261 268 256 254 276 118 141 184 202 101 89 266 256 248 193 152 128 114 105 99 107 126 148 152 178 233 287 110 153 156 150 146 124 108 106 101 87 78 76 78 65 36 72 71 54 50 55 57 57 66 74 74 72 72 73 75 75 73 68 63 62 64 65 65 64 61 57 54 52 48 47 46 41 36 35 32 15 346 324 311 315
243 245 234 236 237 237 246 254 259 266 108 136 192 151 102 108 249 270 261 152 144 134 119 107 103 112 138 158 162 181 227 60 112 143 148 144 143 130 114 110 108 102 99 99 100 83 58 67 71 68 66 68 69 69 68 70 71 69 67 66 66 65 66 64 59 55 53 52 53 55 56 55 55 54 51 51 58 70 79 76 81 67 19 1 342 343
238 241 238 240 244 241 242 247 245 225 82 135 97 78 78 102 251 214 147 135 131 134 135 122 114 125 147 165 174 175 141 121 133 143 140 136 135 134 131 126 119 115 115 112 109 104 95 82 77 79 80 79 80 78 72 73 74 70 66 64 60 59 66 69 64 58 55 54 52 51 52 55 56 57 56 50 45 45 48 49 53 49 28 18 2 353
227 239 238 228 229 236 242 248 245 208 135 223 120 81 45 325 103 119 146 151 138 142 141 133 133 145 153 154 156 152 139 137 142 143 140 137 132 125 124 126 122 119 118 114 109 107 105 99 91 88 87 86 85 82 78 78 76 73 74 74 66 61 64 64 62 60 57 54 53 53 55 59 61 64 67 64 56 51 46 39 34 22 8 6 1 351
231 242 250 245 247 241 231 247 275 148 137 144 118 94 83 94 106 125 153 157 149 146 133 125 139 157 155 147 146 150 150 148 148 145 143 145 140 130 125 124 119 115 116 113 108 105 102 100 97 94 93 95 94 91 85 79 73 70 71 72 72 72 68 62 59 59 59 55 51 47 46 50 54 57 60 62 62 61 57 51 45 36 25 16 355 344
253 241 251 300 312 297 144 110 100 168 136 106 99 112 119 121 132 155 166 156 148 139 129 128 140 153 156 152 149 155 161 157 153 152 150 149 148 145 139 132 124 119 115 110 106 104 101 98 95 90 85 83 87 92 89 80 73 67 60 58 62 64 64 64 62 59 60 60 60 56 50 49 50 50 51 52 53 55 54 51 48 46 48 53 45 29
230 239 252 283 288 278 113 114 132 186 145 99 99 113 127 147 162 163 160 155 139 130 133 142 148 152 158 157 153 156 163 160 158 158 155 148 145 146 141 133 129 124 118 112 106 103 102 102 101 97 89 81 74 73 76 78 80 79 69 57 57 59 58 58 57 57 56 54 54 56 55 55 55 52 47 45 45 47 47 45 44 43 45 48 49 50
237 238 240 249 247 235 151 121 197 234 206 155 124 123 146 163 167 161 149 142 135 127 131 144 153 158 159 155 152 154 160 161 162 161 155 147 144 146 144 138 132 127 122 117 112 106 102 100 99 100 101 99 90 79 72 70 78 89 88 75 68 73 75 67 59 57 57 53 48 45 43 43 46 48 47 46 45 46 48 48 46 44 45 46 44 46
269 236 226 230 235 208 130 106 280 257 201 161 145 157 173 164 153 147 141 137 136 131 127 137 152 157 154 152 156 160 161 163 164 159 152 148 147 147 144 138 134 131 127 122 118 114 108 101 99 98 97 98 96 93 88 78 70 77 90 94 89 85 81 73 62 58 58 54 49 45 43 39 35 35 39 43 45 46 47 46 44 41 42 44 43 42
226 245 246 249 235 172 129 134 195 243 188 168 169 175 170 160 151 144 142 144 144 141 140 145 153 153 149 151 156 160 159 159 160 155 150 150 152 151 147 143 139 136 133 130 127 124 116 108 103 99 94 92 91 91 93 90 81 73 76 86 95 96 91 80 64 57 63 68 59 49 45 45 43 38 34 32 36 44 46 40 36 35 34 35 35 33
214 241 249 230 230 228 181 165 175 198 216 187 191 178 158 154 155 150 150 156 152 148 151 153 151 147 144 146 152 156 155 155 155 153 150 152 157 156 151 148 144 140 138 136 132 129 123 117 111 103 97 92 87 83 81 80 80 77 74 75 80 93 102 99 82 60 55 74 88 78 56 46 49 49 40 28 28 37 41 34 27 25 27 30 30 28
215 242 258 256 263 291 136 159 176 197 213 189 207 183 158 155 161 160 161 162 153 151 157 155 148 143 141 144 151 153 151 153 154 152 149 153 157 156 152 150 147 145 143 140 136 132 126 121 117 110 104 96 89 83 75 68 66 64 64 70 74 79 93 99 92 74 55 58 80 81 64 51 45 34 26 25 25 23 23 20 15 14 20 25 24 22